CDT,Max TemperatureF,Mean TemperatureF,Min TemperatureF,Max Dew PointF,MeanDew PointF,Min DewpointF,Max Humidity, Mean Humidity, Min Humidity, Max Sea Level PressureIn, Mean Sea Level PressureIn, Min Sea Level PressureIn, Max VisibilityMiles, Mean VisibilityMiles, Min VisibilityMiles, Max Wind SpeedMPH, Mean Wind SpeedMPH, Max Gust SpeedMPH,PrecipitationIn, CloudCover, Events, WindDirDegrees
2014-3-1,50,37,23,36,31,20,82,66,50,30.20,30.06,29.98,10,8,2,25,11,31,T,8,Rain,29
2014-3-2,23,15,7,19,8,2,92,81,70,30.48,30.33,30.19,10,3,0,29,18,38,0.34,8,Rain-Snow-Thunderstorm,5
2014-3-3,19,12,4,5,0,-5,80,62,43,30.60,30.48,30.10,10,8,1,20,9,30,0.04,6,Snow,360
2014-3-4,41,26,11,24,15,2,73,60,46,30.40,30.21,30.06,10,10,10,15,6,18,0.00,5,,158
2014-3-5,47,36,25,36,27,23,92,69,45,30.23,30.15,30.06,10,8,3,12,6,14,0.04,8,Rain,62
2014-3-6,55,44,33,35,31,29,92,67,41,30.26,30.15,30.00,10,8,4,13,6,15,0.00,5,,315
2014-3-7,60,48,35,35,33,31,82,58,33,29.97,29.90,29.78,10,9,7,28,12,33,0.00,6,,150
2014-3-8,47,40,33,36,31,27,89,75,60,30.35,30.20,29.94,10,4,2,22,11,27,0.60,8,Rain-Thunderstorm,355
2014-3-9,60,43,26,40,34,25,100,72,43,30.36,30.25,30.10,10,7,3,15,6,18,0.00,0,,229
2014-3-10,77,59,41,39,33,23,83,49,14,30.10,29.92,29.74,10,10,9,20,11,29,0.00,1,,194
2014-3-11,82,64,46,52,43,34,83,56,28,29.86,29.58,29.40,10,10,10,38,19,53,0.00,2,,192
2014-3-12,59,48,37,34,26,22,70,47,24,30.27,30.15,29.91,10,10,10,37,14,46,0.00,2,,329
2014-3-13,70,54,37,25,21,16,53,31,7,30.21,30.11,29.96,10,10,10,18,5,23,0.00,0,,206
2014-3-14,73,61,49,30,28,24,44,31,17,29.98,29.94,29.89,10,10,10,21,9,28,0.00,4,,168
2014-3-15,69,56,43,56,48,33,82,66,50,29.96,29.86,29.76,10,9,5,21,8,25,0.28,7,Rain-Thunderstorm,156
2014-3-16,53,42,30,51,39,27,93,82,70,30.14,29.94,29.76,10,7,4,35,18,43,0.81,7,Rain-Snow,349
2014-3-17,56,40,24,29,25,21,92,62,32,30.11,29.88,29.63,10,10,10,21,8,24,0.00,4,,141
2014-3-18,75,59,43,39,35,28,71,45,19,29.85,29.53,29.42,10,10,10,35,22,42,0.00,2,,202
2014-3-19,61,50,39,30,27,23,70,47,23,30.23,30.10,29.88,10,10,10,33,11,40,0.00,3,,309
2014-3-20,72,55,37,28,26,23,64,41,17,30.20,30.07,29.92,10,10,10,22,12,28,0.00,1,,182
2014-3-21,77,63,48,46,35,27,44,35,25,30.02,29.85,29.78,10,10,10,28,13,35,0.00,6,,177
2014-3-22,58,48,37,34,27,21,65,47,28,30.28,30.15,30.04,10,10,10,23,15,29,0.03,4,,22
2014-3-23,49,40,30,24,20,12,69,51,33,30.51,30.39,30.29,10,10,10,23,11,30,0.00,3,,16
2014-3-24,61,44,26,31,26,21,82,56,29,30.31,30.21,30.09,10,10,10,25,8,38,0.00,2,,341
2014-3-25,51,39,27,29,23,19,92,61,29,30.44,30.34,30.25,10,9,6,22,8,26,0.00,1,,12
2014-3-26,54,44,34,39,29,19,83,58,32,30.24,30.05,29.77,10,10,5,35,17,42,0.18,6,Rain,156
2014-3-27,81,66,50,56,45,28,83,49,15,29.80,29.63,29.51,10,10,10,36,23,47,0.00,6,,202
2014-3-28,56,47,38,44,36,32,92,73,54,30.13,29.96,29.83,10,10,5,23,11,29,0.04,5,Rain,9
2014-3-29,66,49,31,41,37,33,100,67,34,30.31,30.23,30.14,10,8,4,13,6,17,0.00,1,,13
2014-3-30,76,60,44,41,38,36,71,48,25,30.20,30.04,29.87,10,10,10,29,15,36,0.00,4,,163
2014-3-31,76,65,54,60,52,42,93,72,50,29.98,29.81,29.73,10,10,10,29,17,39,T,5,Rain-Thunderstorm,177